Weather History for Orange, VA

Change the Weather History Date:

Saturday, April 6, 2013

  Actual Average Record
Temperature  
Mean Temperature 47 °F -  
Max Temperature 57 °F 60 °F 86 °F (2005)
Min Temperature 37 °F 38 °F 26 °F (1975)
Degree Days  
Heating Degree Days 18    
Moisture  
Dew Point 26 °F    
Average Humidity 45    
Maximum Humidity 61    
Minimum Humidity 27    
Precipitation  
Precipitation 0.00 in - - ()
Sea Level Pressure  
Sea Level Pressure 30.24 in    
Wind  
Wind Speed 7 mph (NNE)    
Max Wind Speed 13 mph    
Max Gust Speed 18 mph    
Visibility 10 miles    
Events      
Averages and records for this station are not official NWS values.
T = Trace of Precipitation, MM = Missing Value Source: NWS Daily Summary

Daily Weather History Graph

Daily Weather History Graph

Search for Another Location

Airport:

Trip Planner

Search our weather history database for the weather conditions in past years. The results will help you decide how hot, cold, wet, or windy it might be!

Date:

Astronomy

Apr. 06, 2013 Rise Set
Actual Time 6:49 AM EDT 7:40 PM EDT
Civil Twilight 6:22 AM EDT 8:07 PM EDT
Nautical Twilight 5:50 AM EDT 8:39 PM EDT
Astronomical Twilight 5:17 AM EDT 9:11 PM EDT
Moon 4:28 AM EDT (4/6) 4:09 PM EDT (4/6)
Length of Visible Light 13h 44m
Length of Day
12h 50m
Waning Crescent, 15% of the Moon is Illuminated
Apr 6
Waning Crescent
Apr 10
New
Apr 18
First Quarter
Apr 25
Full
May 2
Last Quarter

Hourly Weather History & Observations

Time (EDT) Temp. Windchill Dew Point Humidity Pressure Visibility Wind Dir Wind Speed Gust Speed Precip Events Conditions
12:15 AM 46.4 °F 45.2 °F 32.0 °F 57% 30.06 in 10.0 mi North 3.5 mph - N/A   Clear
12:35 AM 44.6 °F 42.2 °F 32.0 °F 61% 30.07 in 10.0 mi NNW 4.6 mph - N/A   Clear
12:55 AM 46.4 °F 42.4 °F 30.2 °F 53% 30.08 in 10.0 mi NNW 8.1 mph - N/A   Clear
1:15 AM 46.4 °F 40.7 °F 28.4 °F 50% 30.09 in 10.0 mi NNW 12.7 mph - N/A   Clear
1:35 AM 48.2 °F - 28.4 °F 46% 30.09 in 10.0 mi NNW 11.5 mph 17.3 mph N/A   Clear
1:55 AM 46.4 °F 40.7 °F 28.4 °F 50% 30.10 in 10.0 mi NNW 12.7 mph 18.4 mph N/A   Clear
2:15 AM 44.6 °F 39.2 °F 28.4 °F 53% 30.11 in 10.0 mi NNW 10.4 mph 16.1 mph N/A   Clear
2:35 AM 44.6 °F 39.7 °F 28.4 °F 53% 30.12 in 10.0 mi NNW 9.2 mph - N/A   Clear
2:55 AM 44.6 °F 40.7 °F 26.6 °F 49% 30.12 in 10.0 mi North 6.9 mph - N/A   Clear
3:15 AM 42.8 °F 39.3 °F 26.6 °F 53% 30.12 in 10.0 mi NNW 5.8 mph - N/A   Clear
3:35 AM 42.8 °F 39.3 °F 23.0 °F 46% 30.13 in 10.0 mi NNW 5.8 mph - N/A   Clear
3:55 AM 42.8 °F 38.6 °F 21.2 °F 42% 30.14 in 10.0 mi NNW 6.9 mph - N/A   Clear
4:15 AM 42.8 °F 38.6 °F 19.4 °F 39% 30.15 in 10.0 mi North 6.9 mph - N/A   Clear
4:35 AM 41.0 °F 35.8 °F 19.4 °F 42% 30.16 in 10.0 mi North 8.1 mph - N/A   Clear
4:55 AM 41.0 °F 34.7 °F 19.4 °F 42% 30.16 in 10.0 mi NNW 10.4 mph - N/A   Clear
5:15 AM 41.0 °F 34.3 °F 21.2 °F 45% 30.17 in 10.0 mi North 11.5 mph 16.1 mph N/A   Clear
5:35 AM 39.2 °F 33.0 °F 21.2 °F 49% 30.18 in 10.0 mi North 9.2 mph - N/A   Clear
5:55 AM 39.2 °F 33.0 °F 21.2 °F 49% 30.20 in 10.0 mi North 9.2 mph 16.1 mph N/A   Clear
6:15 AM 37.4 °F 31.4 °F 23.0 °F 56% 30.21 in 10.0 mi North 8.1 mph - N/A   Clear
6:35 AM 37.4 °F 32.1 °F 23.0 °F 56% 30.22 in 10.0 mi North 6.9 mph - N/A   Clear
6:55 AM 37.4 °F 32.1 °F 23.0 °F 56% 30.24 in 10.0 mi NNE 6.9 mph - N/A   Clear
7:15 AM 37.4 °F 31.4 °F 23.0 °F 56% 30.25 in 10.0 mi NNW 8.1 mph - N/A   Clear
7:35 AM 37.4 °F 33.8 °F 24.8 °F 60% 30.26 in 10.0 mi NNW 4.6 mph - N/A   Clear
7:55 AM 39.2 °F 33.0 °F 24.8 °F 56% 30.27 in 10.0 mi NNE 9.2 mph - N/A   Clear
8:15 AM 41.0 °F 36.4 °F 26.6 °F 57% 30.28 in 10.0 mi NNE 6.9 mph - N/A   Clear
8:35 AM 41.0 °F 34.3 °F 26.6 °F 57% 30.29 in 10.0 mi North 11.5 mph - N/A   Clear
8:55 AM 42.8 °F 36.6 °F 26.6 °F 53% 30.31 in 10.0 mi NNW 11.5 mph - N/A   Clear
9:15 AM 42.8 °F 37.0 °F 26.6 °F 53% 30.31 in 10.0 mi NNW 10.4 mph 16.1 mph N/A   Clear
9:35 AM 42.8 °F 36.6 °F 26.6 °F 53% 30.31 in 10.0 mi North 11.5 mph - N/A   Clear
9:55 AM 44.6 °F 38.8 °F 26.6 °F 49% 30.32 in 10.0 mi NNE 11.5 mph 16.1 mph N/A   Clear
10:15 AM 44.6 °F 39.2 °F 24.8 °F 46% 30.32 in 10.0 mi NNE 10.4 mph 17.3 mph N/A   Clear
10:35 AM 46.4 °F 41.9 °F 26.6 °F 46% 30.33 in 10.0 mi NNE 9.2 mph - N/A   Clear
10:55 AM 46.4 °F 42.9 °F 26.6 °F 46% 30.33 in 10.0 mi ENE 6.9 mph - N/A   Clear
11:15 AM 46.4 °F 42.4 °F 26.6 °F 46% 30.34 in 10.0 mi NNE 8.1 mph - N/A   Clear
11:35 AM 48.2 °F - 26.6 °F 43% 30.34 in 10.0 mi North 5.8 mph - N/A   Clear
11:55 AM 50.0 °F - 24.8 °F 37% 30.34 in 10.0 mi North 5.8 mph - N/A   Clear
12:15 PM 50.0 °F - 23.0 °F 35% 30.34 in 10.0 mi North 5.8 mph - N/A   Clear
12:35 PM 50.0 °F - 26.6 °F 40% 30.33 in 10.0 mi North 6.9 mph - N/A   Clear
12:55 PM 50.0 °F - 24.8 °F 37% 30.32 in 10.0 mi Calm Calm - N/A   Clear
1:15 PM 51.8 °F - 26.6 °F 38% 30.31 in 10.0 mi ESE 3.5 mph - N/A   Clear
1:35 PM 51.8 °F - 26.6 °F 38% 30.31 in 10.0 mi NNW 6.9 mph - N/A   Clear
1:55 PM 53.6 °F - 23.0 °F 30% 30.30 in 10.0 mi North 3.5 mph - N/A   Clear
2:15 PM 53.6 °F - 26.6 °F 35% 30.30 in 10.0 mi NNW 5.8 mph - N/A   Clear
2:35 PM 53.6 °F - 26.6 °F 35% 30.29 in 10.0 mi North 4.6 mph - N/A   Clear
2:55 PM 55.4 °F - 26.6 °F 33% 30.28 in 10.0 mi North 4.6 mph - N/A   Clear
3:15 PM 55.4 °F - 26.6 °F 33% 30.27 in 10.0 mi North 3.5 mph - N/A   Clear
3:35 PM 55.4 °F - 26.6 °F 33% 30.26 in 10.0 mi NNW 5.8 mph - N/A   Clear
3:55 PM 55.4 °F - 26.6 °F 33% 30.26 in 10.0 mi SW 3.5 mph - N/A   Clear
4:15 PM 57.2 °F - 26.6 °F 31% 30.25 in 10.0 mi Calm Calm - N/A   Clear
4:35 PM 57.2 °F - 26.6 °F 31% 30.25 in 10.0 mi East 5.8 mph - N/A   Clear
4:55 PM 57.2 °F - 23.0 °F 27% 30.25 in 10.0 mi ENE 8.1 mph - N/A   Clear
5:15 PM 57.2 °F - 23.0 °F 27% 30.24 in 10.0 mi East 9.2 mph - N/A   Clear
5:35 PM 57.2 °F - 23.0 °F 27% 30.24 in 10.0 mi East 5.8 mph - N/A   Clear
5:55 PM 57.2 °F - 24.8 °F 29% 30.25 in 10.0 mi East 5.8 mph - N/A   Clear
6:15 PM 55.4 °F - 24.8 °F 31% 30.25 in 10.0 mi East 5.8 mph - N/A   Clear
6:35 PM 55.4 °F - 23.0 °F 29% 30.25 in 10.0 mi East 6.9 mph - N/A   Clear
6:55 PM 55.4 °F - 23.0 °F 29% 30.25 in 10.0 mi East 3.5 mph - N/A   Clear
7:15 PM 53.6 °F - 24.8 °F 33% 30.25 in 10.0 mi East 3.5 mph - N/A   Clear
7:35 PM 53.6 °F - 24.8 °F 33% 30.25 in 10.0 mi Calm Calm - N/A   Clear
7:55 PM 53.6 °F - 26.6 °F 35% 30.25 in 10.0 mi Calm Calm - N/A   Clear
8:15 PM 50.0 °F - 28.4 °F 43% 30.26 in 10.0 mi Calm Calm - N/A   Clear
8:35 PM 48.2 °F - 28.4 °F 46% 30.26 in 10.0 mi Calm Calm - N/A   Clear
8:55 PM 46.4 °F 45.2 °F 30.2 °F 53% 30.26 in 10.0 mi East 3.5 mph - N/A   Clear
9:15 PM 50.0 °F - 28.4 °F 43% 30.27 in 10.0 mi East 6.9 mph - N/A   Clear
9:35 PM 50.0 °F - 28.4 °F 43% 30.27 in 10.0 mi East 6.9 mph - N/A   Clear
9:55 PM 48.2 °F - 30.2 °F 50% 30.27 in 10.0 mi East 5.8 mph - N/A   Clear
10:15 PM 48.2 °F - 30.2 °F 50% 30.28 in 10.0 mi East 5.8 mph - N/A   Clear
10:35 PM 46.4 °F 44.3 °F 32.0 °F 57% 30.28 in 10.0 mi East 4.6 mph - N/A   Clear
10:55 PM 46.4 °F 43.5 °F 32.0 °F 57% 30.28 in 10.0 mi ESE 5.8 mph - N/A   Clear
11:15 PM 46.4 °F 42.9 °F 32.0 °F 57% 30.28 in 10.0 mi ESE 6.9 mph - N/A   Clear
11:35 PM 46.4 °F 43.5 °F 32.0 °F 57% 30.28 in 10.0 mi ESE 5.8 mph - N/A   Clear
11:55 PM 44.6 °F 41.4 °F 32.0 °F 61% 30.28 in 10.0 mi SE 5.8 mph - N/A   Clear